Weather History for Nenana, AK

Change the Weather History Date:

Friday, May 24, 2013

  Actual Average Record
Temperature  
Mean Temperature 54 °F -  
Max Temperature 69 °F 63 °F 79 °F (2011)
Min Temperature 39 °F 38 °F 36 °F (1972)
Degree Days  
Heating Degree Days 12    
Growing Degree Days 4 (Base 50)    
Moisture  
Dew Point 37 °F    
Average Humidity 54    
Maximum Humidity 93    
Minimum Humidity 26    
Precipitation  
Precipitation 0.00 in - - ()
Sea Level Pressure  
Sea Level Pressure 30.06 in    
Wind  
Wind Speed 3 mph (NNW)    
Max Wind Speed 9 mph    
Max Gust Speed -    
Visibility 10 miles    
Events      
Averages and records for this station are not official NWS values.
T = Trace of Precipitation, MM = Missing Value Source: NWS Daily Summary

Daily Weather History Graph

Daily Weather History Graph

Search for Another Location

Airport:

Trip Planner

Search our weather history database for the weather conditions in past years. The results will help you decide how hot, cold, wet, or windy it might be!

Date:

Astronomy

May. 24, 2013 Rise Set
Actual Time 4:06 AM AKDT 11:42 PM AKDT
Civil Twilight 2:25 AM AKDT 1:20 AM AKDT
Nautical Twilight Sun does not rise Sun does not rise
Astronomical Twilight Sun does not rise Sun does not rise
Moon 11:18 PM AKDT (5/24) 4:18 AM AKDT (5/24)
Length of Visible Light 22h 55m
Length of Day
19h 36m
Full, 100% of the Moon is Illuminated
May 24
Full
May 24
Full
May 31
Last Quarter
Jun 8
New
Jun 16
First Quarter

Hourly Weather History & Observations

Time (AKDT) Temp. Windchill Dew Point Humidity Pressure Visibility Wind Dir Wind Speed Gust Speed Precip Events Conditions
12:53 AM 48.0 °F - 42.1 °F 80% 30.13 in 10.0 mi Calm Calm - N/A   Partly Cloudy
1:53 AM 45.0 °F - 39.9 °F 82% 30.13 in 10.0 mi Calm Calm - N/A   Scattered Clouds
2:53 AM 41.0 °F - 39.0 °F 93% 30.14 in 10.0 mi Calm Calm - N/A   Clear
3:53 AM 39.9 °F 35.8 °F 37.9 °F 93% 30.14 in 10.0 mi SW 5.8 mph - N/A   Partly Cloudy
4:53 AM 42.1 °F - 37.0 °F 82% 30.14 in 10.0 mi Calm Calm - N/A   Clear
5:53 AM 42.1 °F 40.2 °F 37.0 °F 82% 30.14 in 10.0 mi SW 3.5 mph - N/A   Clear
6:53 AM 41.0 °F 37.1 °F 36.0 °F 82% 30.13 in 10.0 mi West 5.8 mph - N/A   Clear
7:53 AM 48.9 °F - 37.9 °F 66% 30.13 in 10.0 mi Variable 3.5 mph - N/A   Clear
8:53 AM 53.1 °F - 39.0 °F 59% 30.13 in 10.0 mi Calm Calm - N/A   Clear
9:53 AM 55.9 °F - 37.0 °F 49% 30.12 in 10.0 mi WNW 3.5 mph - N/A   Clear
10:53 AM 60.1 °F - 37.9 °F 44% 30.11 in 10.0 mi NW 5.8 mph - N/A   Clear
11:53 AM 62.1 °F - 37.9 °F 41% 30.09 in 10.0 mi NE 6.9 mph - N/A   Partly Cloudy
12:53 PM 64.0 °F - 37.0 °F 37% 30.08 in 10.0 mi Variable 3.5 mph - N/A   Overcast
1:53 PM 64.9 °F - 36.0 °F 34% 30.06 in 10.0 mi Variable 3.5 mph - N/A   Mostly Cloudy
2:53 PM 64.9 °F - 36.0 °F 34% 30.06 in 10.0 mi SE 8.1 mph - N/A   Mostly Cloudy
3:53 PM 66.9 °F - 34.0 °F 30% 30.04 in 10.0 mi Variable 3.5 mph - N/A   Mostly Cloudy
4:53 PM 68.0 °F - 34.0 °F 28% 30.03 in 10.0 mi Variable 6.9 mph - N/A   Mostly Cloudy
5:53 PM 68.0 °F - 32.0 °F 26% 30.01 in 10.0 mi Calm Calm - N/A   Overcast
6:53 PM 68.0 °F - 33.1 °F 27% 30.00 in 10.0 mi NE 8.1 mph - N/A   Mostly Cloudy
7:53 PM 66.9 °F - 32.0 °F 27% 29.99 in 10.0 mi NNE 4.6 mph - N/A   Partly Cloudy
8:53 PM 68.0 °F - 33.1 °F 27% 29.98 in 10.0 mi NE 5.8 mph - N/A   Clear
9:53 PM 66.9 °F - 30.9 °F 26% 29.97 in 10.0 mi Calm Calm - N/A   Partly Cloudy
10:53 PM 62.1 °F - 34.0 °F 35% 29.96 in 10.0 mi Calm Calm - N/A   Clear
11:53 PM 54.0 °F - 35.1 °F 49% 29.96 in 10.0 mi Calm Calm - N/A   Clear